State College, PA

6:13 PM EDT on July 26, 2017 (GMT -0400)
University Park

Weather History for KUNV - October, 2013

Change the Weather History Date:

Monday, October 14, 2013

  Actual Average Record
Temperature  
Mean Temperature 56 °F -  
Max Temperature 60 °F 63 °F 82 °F (1930)
Min Temperature 51 °F 42 °F 26 °F (1934)
Degree Days  
Heating Degree Days 10    
Growing Degree Days 6 (Base 50)    
Moisture  
Dew Point 52 °F    
Average Humidity 86    
Maximum Humidity 100    
Minimum Humidity 72    
Precipitation  
Precipitation 0.00 in - - ()
Sea Level Pressure  
Sea Level Pressure 30.31 in    
Wind  
Wind Speed 1 mph (SSW)    
Max Wind Speed 5 mph    
Max Gust Speed -    
Visibility 10 miles    
Events Rain    
Averages and records for this station are not official NWS values.
T = Trace of Precipitation, MM = Missing Value Source: NWS Daily Summary

Daily Weather History Graph

Daily Weather History Graph

Search for Another Location

Airport or City:

Trip Planner

Search our weather history database for the weather conditions in past years. The results will help you decide how hot, cold, wet, or windy it might be!

Date:

Astronomy

Oct. 14, 2013 Rise Set
Actual Time 7:21 AM EDT 6:32 PM EDT
Civil Twilight 6:54 AM EDT 6:59 PM EDT
Nautical Twilight 6:22 AM EDT 7:31 PM EDT
Astronomical Twilight 5:50 AM EDT 8:03 PM EDT
Moon 4:02 PM EDT (10/14) 2:34 AM EDT (10/14)
Length of Visible Light 12h 05m
Length of Day
11h 10m
Waxing Gibbous, 79% of the Moon is Illuminated
Oct 14
Waxing Gibbous
Oct 18
Full
Oct 26
Last Quarter
Nov 3
New
Nov 10
First Quarter

Hourly Weather History & Observations

Time (EDT) Temp. Dew Point Humidity Pressure Visibility Wind Dir Wind Speed Gust Speed Precip Events Conditions
12:15 AM 55.9 °F 54.5 °F 95% 30.32 in 10.0 mi Calm Calm - N/A   Scattered Clouds
12:35 AM 56.3 °F 54.5 °F 94% 30.32 in 10.0 mi Calm Calm - N/A   Scattered Clouds
12:55 AM 55.8 °F 54.3 °F 95% 30.32 in 10.0 mi SW 3.5 mph - N/A   Scattered Clouds
1:15 AM 56.1 °F 54.3 °F 94% 30.32 in 10.0 mi Calm Calm - N/A   Clear
1:35 AM 55.9 °F 54.5 °F 95% 30.32 in 10.0 mi Calm Calm - N/A   Mostly Cloudy
1:55 AM 56.1 °F 54.0 °F 92% 30.32 in 10.0 mi Calm Calm - N/A   Overcast
2:15 AM 56.3 °F 52.7 °F 88% 30.32 in 10.0 mi Calm Calm - N/A   Overcast
2:35 AM 56.3 °F 52.3 °F 87% 30.32 in 10.0 mi Calm Calm - N/A   Overcast
2:55 AM 56.3 °F 51.8 °F 85% 30.32 in 10.0 mi Calm Calm - N/A   Overcast
3:15 AM 55.9 °F 50.7 °F 83% 30.32 in 10.0 mi Calm Calm - N/A   Overcast
3:35 AM 55.8 °F 50.0 °F 81% 30.32 in 10.0 mi Calm Calm - N/A   Overcast
3:55 AM 55.6 °F 48.2 °F 76% 30.32 in 10.0 mi South 3.5 mph - N/A   Mostly Cloudy
4:15 AM 55.4 °F 47.3 °F 74% 30.32 in 10.0 mi South 3.5 mph - N/A   Overcast
4:35 AM 55.4 °F 47.1 °F 74% 30.32 in 10.0 mi Calm Calm - N/A   Overcast
4:55 AM 53.1 °F 49.3 °F 87% 30.32 in 5.0 mi Calm Calm - N/A Rain Rain
5:15 AM 53.1 °F 49.8 °F 89% 30.32 in 10.0 mi Calm Calm - N/A   Light Drizzle
5:35 AM 53.1 °F 49.6 °F 88% 30.32 in 10.0 mi Calm Calm - N/A   Overcast
5:55 AM 53.6 °F 50.0 °F 88% 30.32 in 8.0 mi Calm Calm - N/A   Overcast
6:53 AM 51.8 °F 50.0 °F 94% 30.32 in 10.0 mi Calm Calm - N/A   Overcast
7:53 AM 53.6 °F 50.0 °F 88% 30.33 in 10.0 mi Calm Calm - N/A   Overcast
8:53 AM 51.8 °F 50.0 °F 94% 30.35 in 9.0 mi East 3.5 mph - N/A   Overcast
9:53 AM 51.8 °F 51.8 °F 100% 30.35 in 10.0 mi Calm Calm - N/A   Overcast
10:53 AM 53.6 °F 50.0 °F 88% 30.35 in 10.0 mi Calm Calm - N/A   Overcast
11:53 AM 55.4 °F 51.8 °F 88% 30.34 in 7.0 mi Calm Calm - N/A   Overcast
12:53 PM 57.2 °F 51.8 °F 82% 30.32 in 10.0 mi Calm Calm - N/A   Overcast
1:53 PM 59.0 °F 51.8 °F 77% 30.30 in 10.0 mi Calm Calm - N/A   Overcast
2:53 PM 59.0 °F 51.8 °F 77% 30.28 in 10.0 mi Calm Calm - N/A   Overcast
3:53 PM 59.0 °F 51.8 °F 77% 30.27 in 10.0 mi Calm Calm - N/A   Overcast
4:53 PM 60.8 °F 51.8 °F 72% 30.27 in 10.0 mi Calm Calm - N/A   Overcast
5:53 PM 59.0 °F 53.6 °F 82% 30.27 in 10.0 mi Calm Calm - N/A   Overcast
6:53 PM 59.0 °F 53.6 °F 82% 30.28 in 10.0 mi Calm Calm - N/A   Overcast
7:53 PM 59.0 °F 53.6 °F 82% 30.28 in 10.0 mi Calm Calm - N/A   Overcast
8:53 PM 57.2 °F 53.6 °F 88% 30.28 in 10.0 mi Calm Calm - N/A   Overcast
9:35 PM 58.1 °F 53.6 °F 85% 30.28 in 10.0 mi Calm Calm - N/A   Overcast
9:55 PM 58.1 °F 53.8 °F 86% 30.28 in 10.0 mi Calm Calm - N/A   Overcast
10:15 PM 57.7 °F 53.8 °F 87% 30.28 in 10.0 mi Calm Calm - N/A   Overcast
10:35 PM 57.6 °F 54.0 °F 88% 30.28 in 10.0 mi Calm Calm - N/A   Overcast
10:55 PM 57.4 °F 54.1 °F 89% 30.28 in 10.0 mi NNW 4.6 mph - N/A   Overcast
11:15 PM 57.7 °F 53.8 °F 87% 30.29 in 10.0 mi NNW 3.5 mph - N/A   Overcast
11:35 PM 57.6 °F 53.8 °F 87% 30.29 in 10.0 mi Calm Calm - N/A   Overcast
11:55 PM 57.0 °F 54.5 °F 91% 30.28 in 10.0 mi Calm Calm - N/A   Overcast